Change the Weather History Date:

Sunday, April 29, 2012

  Actual Average Record
Temperature  
Mean Temperature 46 °F 46 °F  
Max Temperature 65 °F 61 °F 82 °F (1968)
Min Temperature 27 °F 32 °F 20 °F (2014)
Degree Days  
Heating Degree Days 19 19  
Month to date heating degree days 577 628  
Since 1 July heating degree days 6539 6996  
Cooling Degree Days 0 0  
Month to date cooling degree days 0 0  
Year to date cooling degree days 0 0  
Moisture  
Dew Point 33 °F    
Average Humidity 67    
Maximum Humidity 100    
Minimum Humidity 34    
Precipitation  
Precipitation 0.00 in 0.03 in 0.69 in (1995)
Month to date precipitation 1.11 0.81  
Year to date precipitation 2.77 3.01  
Sea Level Pressure  
Sea Level Pressure 30.07 in    
Wind  
Wind Speed 4 mph (ESE)    
Max Wind Speed 14 mph    
Max Gust Speed 21 mph    
Visibility 7 miles    
Events Fog    
T = Trace of Precipitation, MM = Missing Value Source: NWS Daily Summary

Daily Weather History Graph

Daily Weather History Graph

Search for Another Location

Airport or City:

Trip Planner

Search our weather history database for the weather conditions in past years. The results will help you decide how hot, cold, wet, or windy it might be!

Date:

Astronomy

Apr. 29, 2012 Rise Set
Actual Time 5:43 AM PDT 7:54 PM PDT
Civil Twilight 5:10 AM PDT 8:26 PM PDT
Nautical Twilight 4:31 AM PDT 9:06 PM PDT
Astronomical Twilight 3:47 AM PDT 9:51 PM PDT
Moon 12:34 PM PDT (4/29) 1:55 AM PDT (4/29)
Length of Visible Light 15h 15m
Length of Day
14h 11m
First Quarter, 54% of the Moon is Illuminated
Apr 29
First Quarter
May 5
Full
May 12
Last Quarter
May 20
New
May 28
First Quarter

Hourly Weather History & Observations

Time (PDT) Temp. Windchill Dew Point Humidity Pressure Visibility Wind Dir Wind Speed Gust Speed Precip Events Conditions
12:53 AM 36.0 °F 32.1 °F 34.0 °F 93% 30.16 in 10.0 mi WSW 4.6 mph - N/A   Clear
1:53 AM 32.0 °F - 30.9 °F 96% 30.16 in 5.0 mi Calm Calm - N/A   Scattered Clouds
2:48 AM 30.2 °F - 30.2 °F 100% 30.11 in 1.8 mi Calm Calm - N/A   Partly Cloudy
2:53 AM 30.9 °F - 30.9 °F 100% 30.14 in 1.5 mi Calm Calm - N/A   Partly Cloudy
3:07 AM 28.4 °F - 28.4 °F 100% 30.11 in 0.5 mi Calm Calm - N/A Fog Light Freezing Fog
3:21 AM 32.0 °F - 30.2 °F 93% 30.11 in 2.0 mi Calm Calm - N/A   Clear
3:30 AM 30.2 °F 26.7 °F 30.2 °F 100% 30.11 in 10.0 mi WNW 3.5 mph - N/A   Partly Cloudy
3:53 AM 30.9 °F 27.5 °F 30.0 °F 96% 30.14 in 10.0 mi SW 3.5 mph - N/A   Mostly Cloudy
4:37 AM 30.2 °F - 28.4 °F 93% 30.10 in 1.8 mi Calm Calm - N/A   Clear
4:53 AM 30.2 °F - 28.4 °F 93% 30.10 in 1.0 mi Calm Calm - N/A   Clear
5:01 AM 30.2 °F - 28.4 °F 93% 30.10 in 0.8 mi Calm Calm - N/A   Mist
5:31 AM 28.4 °F - 28.4 °F 100% 30.11 in 1.2 mi Calm Calm - N/A   Partly Cloudy
5:34 AM 28.4 °F - 28.4 °F 100% 30.11 in 3.0 mi Calm Calm - N/A   Partly Cloudy
5:42 AM 28.4 °F - 28.4 °F 100% 30.11 in 1.0 mi Calm Calm - N/A   Clear
5:46 AM 28.4 °F - 28.4 °F 100% 30.11 in 0.2 mi Calm Calm - N/A Fog Light Freezing Fog
5:53 AM 28.0 °F - 28.0 °F 100% 30.15 in 0.2 mi Calm Calm - N/A Fog Light Freezing Fog
6:27 AM 30.2 °F - 30.2 °F 100% 30.11 in 1.0 mi Calm Calm - N/A   Mist
6:29 AM 30.2 °F - 30.2 °F 100% 30.11 in 2.0 mi Calm Calm - N/A   Partly Cloudy
6:36 AM 30.2 °F - 30.2 °F 100% 30.12 in 10.0 mi Calm Calm - N/A   Scattered Clouds
6:53 AM 34.0 °F - 34.0 °F 100% 30.15 in 10.0 mi Calm Calm - N/A   Mostly Cloudy
7:53 AM 41.0 °F 39.0 °F 37.0 °F 86% 30.15 in 10.0 mi SSE 3.5 mph - N/A   Partly Cloudy
8:53 AM 46.0 °F 44.8 °F 37.9 °F 73% 30.14 in 10.0 mi Variable 3.5 mph - N/A   Clear
9:53 AM 51.8 °F - 39.2 °F 62% 30.11 in 10.0 mi Variable 3.5 mph - N/A   Clear
10:53 AM 54.0 °F - 37.0 °F 53% 30.12 in 10.0 mi Calm Calm - N/A   Clear
11:53 AM 57.0 °F - 36.0 °F 45% 30.11 in 10.0 mi Calm Calm - N/A   Clear
12:53 PM 59.0 °F - 36.0 °F 42% 30.07 in 10.0 mi Calm Calm - N/A   Partly Cloudy
1:53 PM 60.1 °F - 36.0 °F 41% 30.04 in 10.0 mi ESE 4.6 mph - N/A   Partly Cloudy
2:53 PM 63.0 °F - 36.0 °F 37% 30.01 in 10.0 mi Variable 6.9 mph - N/A   Clear
3:53 PM 64.0 °F - 36.0 °F 35% 29.98 in 10.0 mi East 8.1 mph - N/A   Clear
4:53 PM 64.0 °F - 37.0 °F 37% 29.96 in 10.0 mi ENE 5.8 mph - N/A   Clear
5:53 PM 62.1 °F - 39.0 °F 43% 29.96 in 10.0 mi East 11.5 mph - N/A   Clear
6:53 PM 59.0 °F - 39.9 °F 49% 29.93 in 10.0 mi East 10.4 mph - N/A   Clear
7:53 PM 57.0 °F - 37.9 °F 49% 29.92 in 10.0 mi East 11.5 mph - N/A   Clear
8:53 PM 51.1 °F - 37.9 °F 61% 29.92 in 10.0 mi East 4.6 mph - N/A   Clear
9:53 PM 50.0 °F - 37.0 °F 61% 29.91 in 10.0 mi SE 5.8 mph - N/A   Clear
10:53 PM 48.0 °F - 36.0 °F 63% 29.88 in 10.0 mi SE 5.8 mph - N/A   Clear
11:53 PM 48.9 °F - 37.0 °F 64% 29.86 in 10.0 mi SE 3.5 mph - N/A   Clear